Back to catalog

IRIDIUM 33 DEB

AlivePO
NORAD 35631·DEBRIS·🇺🇸 United States

Launched Sep 14, 1997 from Baikonur Cosmodrome

Loading…

Next Passes (next 24 hours)

TLE

FreshSource: Space-Track

Epoch: Sep 14, 2026, 11:33 UTC

1 35631U 97051RD  26257.48135058  .00000568  00000-0  14789-3 0  9997
2 35631  86.3601 262.1688 0014396 283.7828 228.2510 14.47897538911869

Track IRIDIUM 33 DEB in real time with AllMySat

Download on the App Store